This is the latest recevied weather packets stored in our database for station/object KD8PH. If no packets are shown the sender has not sent any weather packets the latest 10 day(s).
| Time | Temp. | Humidity | Pressure | Rain* | Wind** | Luminosity | Snow |
|---|---|---|---|---|---|---|---|
| 1777639536 | 12.78° C | 77% | 1013.4 hPa | 0.25 mm | - | - | - |
| 1777638936 | 12.22° C | 73% | 1013.5 hPa | 0.25 mm | - | - | - |
| 1777638336 | 12.22° C | 73% | 1013.5 hPa | 0.25 mm | - | - | - |
| 1777637736 | 12.22° C | 74% | 1013.6 hPa | 0.25 mm | - | - | - |
| 1777637135 | 11.67° C | 73% | 1013.4 hPa | 0.25 mm | - | - | - |
| 1777636534 | 11.67° C | 74% | 1013.2 hPa | 0.25 mm | - | - | - |
| 1777635937 | 11.67° C | 74% | 1013.1 hPa | 0 mm | - | - | - |
| 1777635340 | 11.11° C | 78% | 1013 hPa | 0.25 mm | - | - | - |
| 1777634743 | 10.56° C | 83% | 1012.6 hPa | 0.25 mm | - | - | - |
| 1777634140 | 10° C | 86% | 1012.8 hPa | 0.25 mm | - | - | - |
| 1777633539 | 10° C | 88% | 1012.3 hPa | 0.25 mm | - | - | - |
| 1777632935 | 9.44° C | 87% | 1012.1 hPa | 0.25 mm | - | - | - |
| 1777632343 | 9.44° C | 86% | 1012.2 hPa | 0.25 mm | - | - | - |
| 1777631756 | 9.44° C | 86% | 1012 hPa | 0.25 mm | - | - | - |
| 1777631143 | 10° C | 86% | 1012 hPa | 0.25 mm | - | - | - |
| 1777630539 | 10° C | 86% | 1012.1 hPa | 0.25 mm | - | - | - |
| 1777629937 | 10° C | 85% | 1012 hPa | 0.25 mm | - | - | - |
| 1777629340 | 10.56° C | 83% | 1012.1 hPa | 0.25 mm | - | - | - |
| 1777628746 | 10.56° C | 84% | 1012.1 hPa | 0.51 mm | - | - | - |
| 1777628153 | 10.56° C | 85% | 1012 hPa | 0.25 mm | - | - | - |
| 1777627545 | 10.56° C | 84% | 1012.1 hPa | 0.25 mm | - | - | - |
| 1777626936 | 10.56° C | 82% | 1012.3 hPa | 0.25 mm | - | - | - |
| 1777626334 | 10.56° C | 83% | 1012 hPa | 0.25 mm | - | - | - |
| 1777625737 | 11.11° C | 82% | 1012.1 hPa | 0.51 mm | - | - | - |
| 1777625134 | 11.11° C | 82% | 1012.1 hPa | 0.25 mm | - | - | - |
* Rain latest hour (hover to see other rain measurements)
** Current wind speed in m/s (hover to see current wind gust speed)